Ashtabula, OH

12:09 PM EDT on October 20, 2017 (GMT -0400)
Ashtabula County

Weather History for KHZY - February, 2014

Change the Weather History Date:

Monday, February 10, 2014

  Actual Average (KGKJ) Record (KGKJ)
Temperature  
Mean Temperature 9 °F -  
Max Temperature 17 °F 30 °F 52 °F (1966)
Min Temperature 1 °F 9 °F -12 °F (1951)
Degree Days  
Heating Degree Days 56    
Moisture  
Dew Point 8 °F    
Average Humidity 77    
Maximum Humidity 86    
Minimum Humidity 59    
Precipitation  
Precipitation 0.00 in - - ()
Sea Level Pressure  
Sea Level Pressure 30.22 in    
Wind  
Wind Speed 4 mph (West)    
Max Wind Speed 15 mph    
Max Gust Speed 16 mph    
Visibility 4 miles    
Events Snow    
Averages and records for this station are not official NWS values.
T = Trace of Precipitation, MM = Missing Value Source: NWS Daily Summary

Daily Weather History Graph

Daily Weather History Graph

Search for Another Location

Airport or City:

Trip Planner

Search our weather history database for the weather conditions in past years. The results will help you decide how hot, cold, wet, or windy it might be!

Date:

Astronomy

Feb. 10, 2014 Rise Set
Actual Time 7:24 AM EST 5:49 PM EST
Civil Twilight 6:56 AM EST 6:18 PM EST
Nautical Twilight 6:23 AM EST 6:51 PM EST
Astronomical Twilight 5:50 AM EST 7:23 PM EST
Moon 2:16 PM EST (2/10) 4:18 AM EST (2/10)
Length of Visible Light 11h 22m
Length of Day
10h 24m
Waxing Gibbous, 84% of the Moon is Illuminated
Feb 10
Waxing Gibbous
Feb 14
Full
Feb 22
Last Quarter
Mar 1
New
Mar 8
First Quarter

Hourly Weather History & Observations

Time (EST) Temp. Windchill Dew Point Humidity Pressure Visibility Wind Dir Wind Speed Gust Speed Precip Events Conditions
12:19 AM 15.8 °F - 10.4 °F 79% 30.13 in 2.5 mi Calm Calm - 0.00 in Snow Light Snow
12:53 AM 15.1 °F - 10.0 °F 80% 30.17 in 3.0 mi Calm Calm - 0.00 in Snow Light Snow
1:00 AM 15.8 °F - 10.4 °F 79% 30.12 in 1.8 mi Calm Calm - 0.00 in Snow Light Snow
1:10 AM 15.8 °F - 10.4 °F 79% 30.12 in 2.0 mi Calm Calm - 0.00 in Snow Light Snow
1:20 AM 15.8 °F - 10.4 °F 79% 30.12 in 2.5 mi Calm Calm - 0.00 in Snow Light Snow
1:37 AM 15.8 °F - 10.4 °F 79% 30.12 in 2.0 mi Calm Calm - 0.00 in Snow Light Snow
1:42 AM 15.8 °F - 10.4 °F 79% 30.12 in 1.0 mi Calm Calm - 0.00 in Snow Light Snow
1:51 AM 15.8 °F - 10.4 °F 79% 30.12 in 0.8 mi Calm Calm - 0.00 in Snow Light Snow
1:53 AM 15.1 °F - 10.9 °F 84% 30.17 in 0.8 mi Calm Calm - 0.00 in Snow Light Snow
2:07 AM 15.8 °F 10.2 °F 10.4 °F 79% 30.12 in 0.8 mi SW 3.5 mph - 0.00 in Snow Light Snow
2:13 AM 15.8 °F 8.6 °F 10.4 °F 79% 30.12 in 1.2 mi SW 4.6 mph - 0.00 in Snow Light Snow
2:19 AM 15.8 °F 8.6 °F 10.4 °F 79% 30.13 in 2.0 mi WSW 4.6 mph - 0.00 in Snow Light Snow
2:43 AM 15.8 °F 7.2 °F 12.2 °F 86% 30.13 in 4.0 mi West 5.8 mph - 0.00 in Snow Light Snow
2:53 AM 17.1 °F 7.6 °F 12.0 °F 81% 30.18 in 2.0 mi West 6.9 mph - 0.00 in Snow Light Snow
2:58 AM 15.8 °F 6.1 °F 12.2 °F 86% 30.14 in 1.8 mi West 6.9 mph - 0.00 in Snow Light Snow
3:26 AM 15.8 °F 6.1 °F 10.4 °F 79% 30.14 in 2.5 mi West 6.9 mph - 0.00 in Snow Light Snow
3:46 AM 15.8 °F 6.1 °F 10.4 °F 79% 30.14 in 1.5 mi West 6.9 mph - 0.00 in Snow Light Snow
3:53 AM 16.0 °F 7.4 °F 10.9 °F 81% 30.18 in 1.5 mi West 5.8 mph - 0.00 in Snow Light Snow
4:25 AM 15.8 °F 6.1 °F 10.4 °F 79% 30.14 in 3.0 mi West 6.9 mph - 0.00 in Snow Light Snow
4:53 AM 14.0 °F 5.1 °F 9.0 °F 80% 30.19 in 7.0 mi WSW 5.8 mph - 0.00 in   Overcast
5:53 AM 12.0 °F 4.1 °F 8.1 °F 84% 30.20 in 3.0 mi WSW 4.6 mph - 0.00 in Snow Light Snow
6:34 AM 12.2 °F 6.1 °F 8.6 °F 85% 30.15 in 2.5 mi West 3.5 mph - 0.00 in Snow Light Snow
6:53 AM 12.9 °F 5.2 °F 9.0 °F 84% 30.21 in 2.0 mi West 4.6 mph - 0.00 in Snow Light Snow
7:29 AM 14.0 °F 3.9 °F 8.6 °F 79% 30.17 in 1.8 mi West 6.9 mph - 0.00 in Snow Light Snow
7:38 AM 12.2 °F 4.3 °F 8.6 °F 85% 30.18 in 2.0 mi West 4.6 mph - 0.00 in Snow Light Snow
7:53 AM 14.0 °F 3.9 °F 9.0 °F 80% 30.24 in 2.0 mi West 6.9 mph - 0.00 in Snow Light Snow
8:08 AM 14.0 °F 3.9 °F 8.6 °F 79% 30.20 in 1.5 mi West 6.9 mph - 0.00 in Snow Light Snow
8:26 AM 14.0 °F 3.9 °F 10.4 °F 86% 30.21 in 1.5 mi West 6.9 mph - 0.00 in Snow Light Snow
8:53 AM 14.0 °F 2.9 °F 9.0 °F 80% 30.27 in 1.2 mi West 8.1 mph - 0.00 in Snow Light Snow
9:18 AM 14.0 °F 3.9 °F 8.6 °F 79% 30.21 in 3.0 mi West 6.9 mph - 0.00 in Snow Light Snow
9:31 AM 15.8 °F 7.2 °F 10.4 °F 79% 30.22 in 2.5 mi West 5.8 mph - 0.00 in Snow Light Snow
9:39 AM 15.8 °F 5.1 °F 10.4 °F 79% 30.22 in 1.0 mi West 8.1 mph - 0.00 in Snow Light Snow
9:53 AM 15.1 °F 3.3 °F 10.0 °F 80% 30.28 in 1.2 mi West 9.2 mph - 0.00 in Snow Light Snow
10:23 AM 15.8 °F 2.1 °F 8.6 °F 73% 30.24 in 1.0 mi West 12.7 mph - 0.00 in Snow Light Snow
10:27 AM 15.8 °F 0.9 °F 8.6 °F 73% 30.24 in 1.5 mi West 15.0 mph - 0.00 in Snow Light Snow
10:34 AM 15.8 °F 3.4 °F 8.6 °F 73% 30.24 in 1.8 mi West 10.4 mph - 0.00 in Snow Light Snow
10:53 AM 16.0 °F 3.6 °F 9.0 °F 74% 30.30 in 1.5 mi West 10.4 mph 16.1 mph 0.00 in Snow Light Snow
11:30 AM 15.8 °F 5.1 °F 8.6 °F 73% 30.25 in 3.0 mi West 8.1 mph - 0.00 in Snow Light Snow
11:40 AM 15.8 °F 4.2 °F 8.6 °F 73% 30.25 in 2.0 mi West 9.2 mph - 0.00 in Snow Light Snow
11:53 AM 16.0 °F 6.3 °F 9.0 °F 74% 30.30 in 2.5 mi WNW 6.9 mph - 0.00 in Snow Light Snow
12:11 PM 17.6 °F 8.2 °F 8.6 °F 68% 30.25 in 4.0 mi WNW 6.9 mph - 0.00 in Snow Light Snow
12:53 PM 16.0 °F 7.4 °F 8.1 °F 71% 30.29 in 4.0 mi NW 5.8 mph - 0.00 in Snow Light Snow
1:53 PM 16.0 °F 6.3 °F 7.0 °F 68% 30.27 in 6.0 mi WNW 6.9 mph - 0.00 in Snow Light Snow
2:53 PM 17.1 °F 8.7 °F 6.1 °F 62% 30.28 in 10.0 mi Variable 5.8 mph - 0.00 in   Overcast
3:19 PM 15.8 °F 3.4 °F 5.0 °F 62% 30.24 in 10.0 mi West 10.4 mph - N/A   Scattered Clouds
3:53 PM 16.0 °F 5.3 °F 3.9 °F 59% 30.29 in 10.0 mi West 8.1 mph - N/A   Clear
4:53 PM 16.0 °F 5.3 °F 3.9 °F 59% 30.31 in 10.0 mi West 8.1 mph - N/A   Clear
5:53 PM 14.0 °F 5.1 °F 5.0 °F 67% 30.33 in 10.0 mi West 5.8 mph - N/A   Clear
6:53 PM 8.1 °F - 1.9 °F 76% 30.35 in 10.0 mi Calm Calm - N/A   Clear
7:53 PM 5.0 °F - -0.0 °F 80% 30.35 in 5.0 mi Calm Calm - N/A   Haze
8:53 PM 1.9 °F - -2.9 °F 80% 30.37 in 8.0 mi Calm Calm - N/A   Overcast
9:53 PM 5.0 °F - -0.9 °F 76% 30.38 in 7.0 mi Calm Calm - N/A   Overcast
10:53 PM 3.0 °F - -2.9 °F 76% 30.38 in 6.0 mi Calm Calm - N/A   Haze
11:10 PM 3.2 °F - -0.4 °F 85% 30.32 in 6.0 mi Calm Calm - N/A   Haze
11:41 PM 1.4 °F - -4.0 °F 78% 30.32 in 6.0 mi Calm Calm - N/A   Haze
11:53 PM 1.9 °F - -2.9 °F 80% 30.38 in 7.0 mi Calm Calm - N/A   Mostly Cloudy